Tracking 30685 objects as of 17-Jun-2025
HD Live streaming from Space Station
objects crossing your sky now

STARLINK-6124

Track STARLINK-6124 now!
10-day predictions
STARLINK-6124 is classified as:


NORAD ID: 56126
Int'l Code: 2023-046AL
Perigee: 565.4 km
Apogee: 567.0 km
Inclination: 43.0 °
Period: 95.8 minutes
Semi major axis: 6937 km
RCS: Unknown
Launch date: March 29, 2023
Source: United States (US)
Launch site: AIR FORCE EASTERN TEST RANGE (AFETR)
Your satellite tracking list
Your tracking list is empty




NASA's NSSDC Master Catalog

Two Line Element Set (TLE):
1 56126U 23046AL  25167.67266600  .00000067  00000-0  20053-4 0  9996
2 56126  43.0019 151.6463 0001147 278.3533  81.7179 15.02538086122195
Source of the keplerian elements: AFSPC